When you browse on this site, cookies collect data to enhance your experience and personalize the content and advertising you see.
Visit our Privacy Policy to learn more. By continuing to use the site, you agree to this use of cookies and data.
  • In Hungary
  • List of Countries
  • For 7 days
  • Water Temperature
  • Satellite Maps
  • Weather Map
  • News
  • Weather Widgets
  • user-avatar
    Login

    Hourly Weather Chishma-Buraevo

    Today, 16 January, Wednesday

    Time Temperature Precipitation Wind Pressure Humidity
    00:00 -11°C° 0.2 mm 7 mps 750 mmHg 92%
    01:00 -10°C° 0.2 mm 6 mps 750 mmHg 92%
    02:00 -10°C° 0.1 mm 6 mps 750 mmHg 92%
    03:00 -9°C° 0.1 mm 6 mps 750 mmHg 92%
    04:00 -9°C° 0 mm 6 mps 750 mmHg 93%
    05:00 -9°C° 0.3 mm 6 mps 750 mmHg 93%
    06:00 -8°C° 0.3 mm 6 mps 750 mmHg 93%
    07:00 -8°C° 0.3 mm 6 mps 751 mmHg 93%
    08:00 -8°C° 0.2 mm 6 mps 751 mmHg 93%
    09:00 -8°C° 0.2 mm 7 mps 751 mmHg 92%
    10:00 -6°C° 0 mm 6 mps 751 mmHg 92%
    11:00 -8°C° 0 mm 7 mps 751 mmHg 90%
    12:00 -8°C° 0 mm 7 mps 751 mmHg 88%
    13:00 -9°C° 0 mm 7 mps 751 mmHg 87%
    14:00 -9°C° 0 mm 7 mps 751 mmHg 85%
    15:00 -11°C° 0 mm 7 mps 751 mmHg 84%
    16:00 -11°C° 0 mm 7 mps 751 mmHg 82%
    17:00 -9°C° 0 mm 7 mps 750 mmHg 81%
    18:00 -10°C° 0 mm 8 mps 750 mmHg 80%
    19:00 -8°C° 0 mm 8 mps 749 mmHg 78%
    20:00 -7°C° 0 mm 8 mps 748 mmHg 77%
    21:00 -8°C° 0 mm 9 mps 748 mmHg 76%
    22:00 -6°C° 0 mm 9 mps 747 mmHg 74%
    23:00 -8°C° 0 mm 9 mps 747 mmHg 74%

    Tomorrow, 17 January, Thursday

    Time Temperature Precipitation Wind Pressure Humidity
    00:00 -7°C° 0 mm 8 mps 747 mmHg 74%
    01:00 -7°C° 0 mm 8 mps 746 mmHg 74%
    02:00 -8°C° 0.2 mm 8 mps 746 mmHg 76%
    03:00 -9°C° 0.2 mm 9 mps 746 mmHg 78%
    04:00 -10°C° 0.2 mm 9 mps 745 mmHg 80%
    05:00 -10°C° 0.4 mm 9 mps 745 mmHg 84%
    06:00 -10°C° 0.4 mm 9 mps 745 mmHg 87%
    07:00 -11°C° 0.4 mm 9 mps 745 mmHg 91%
    08:00 -11°C° 0.5 mm 9 mps 745 mmHg 91%
    09:00 -10°C° 0.5 mm 8 mps 745 mmHg 91%
    10:00 -10°C° 0.5 mm 8 mps 746 mmHg 92%
    11:00 -9°C° 0.2 mm 7 mps 746 mmHg 91%
    12:00 -8°C° 0.2 mm 7 mps 747 mmHg 90%
    13:00 -8°C° 0.2 mm 6 mps 747 mmHg 89%
    14:00 -8°C° 0 mm 5 mps 748 mmHg 90%
    15:00 -9°C° 0 mm 4 mps 748 mmHg 91%
    16:00 -10°C° 0 mm 3 mps 749 mmHg 93%
    17:00 -12°C° 0 mm 3 mps 749 mmHg 93%
    18:00 -14°C° 0 mm 3 mps 750 mmHg 94%
    19:00 -15°C° 0 mm 3 mps 750 mmHg 95%
    20:00 -16°C° 0 mm 3 mps 751 mmHg 96%
    21:00 -16°C° 0 mm 3 mps 751 mmHg 96%
    22:00 -17°C° 0 mm 3 mps 751 mmHg 96%
    23:00 -18°C° 0 mm 3 mps 752 mmHg 96%

    Day after tomorrow, 18 January, Friday

    Time Temperature Precipitation Wind Pressure Humidity
    00:00 -18°C° 0 mm 3 mps 752 mmHg 96%
    01:00 -19°C° 0 mm 3 mps 752 mmHg 96%
    02:00 -19°C° 0 mm 3 mps 752 mmHg 95%
    03:00 -19°C° 0 mm 3 mps 752 mmHg 95%
    04:00 -19°C° 0 mm 3 mps 752 mmHg 94%
    05:00 -20°C° 0 mm 4 mps 752 mmHg 93%
    06:00 -20°C° 0 mm 4 mps 752 mmHg 92%
    07:00 -20°C° 0 mm 4 mps 751 mmHg 90%
    08:00 -20°C° 0 mm 5 mps 751 mmHg 89%
    09:00 -20°C° 0 mm 6 mps 751 mmHg 87%
    10:00 -19°C° 0 mm 7 mps 750 mmHg 85%
    11:00 -18°C° 0 mm 7 mps 750 mmHg 84%
    12:00 -17°C° 0 mm 7 mps 749 mmHg 82%
    13:00 -15°C° 0 mm 7 mps 749 mmHg 81%
    14:00 -14°C° 0 mm 7 mps 749 mmHg 82%
    15:00 -13°C° 0 mm 7 mps 749 mmHg 83%
    16:00 -11°C° 0 mm 6 mps 749 mmHg 84%
    17:00 -12°C° 0 mm 6 mps 749 mmHg 86%
    18:00 -12°C° 0 mm 6 mps 749 mmHg 87%
    19:00 -13°C° 0 mm 5 mps 749 mmHg 89%
    20:00 -13°C° 0 mm 5 mps 749 mmHg 91%
    21:00 -14°C° 0 mm 5 mps 750 mmHg 92%
    22:00 -15°C° 0 mm 5 mps 750 mmHg 93%
    23:00 -15°C° 0 mm 5 mps 750 mmHg 94%

    19 January, Saturday

    Time Temperature Precipitation Wind Pressure Humidity
    00:00 -15°C° 0 mm 5 mps 750 mmHg 94%
    01:00 -15°C° 0 mm 4 mps 750 mmHg 95%
    02:00 -15°C° 0 mm 5 mps 750 mmHg 95%
    03:00 -14°C° 0 mm 5 mps 750 mmHg 95%
    04:00 -14°C° 0 mm 5 mps 749 mmHg 95%
    05:00 -13°C° 0 mm 5 mps 749 mmHg 94%
    06:00 -14°C° 0 mm 6 mps 748 mmHg 94%
    07:00 -12°C° 0 mm 6 mps 748 mmHg 93%
    08:00 -12°C° 0.1 mm 7 mps 747 mmHg 93%
    09:00 -12°C° 0.1 mm 7 mps 747 mmHg 92%
    10:00 -12°C° 0.1 mm 8 mps 746 mmHg 91%
    11:00 -10°C° 0.1 mm 8 mps 746 mmHg 91%
    12:00 -8°C° 0.1 mm 8 mps 745 mmHg 91%
    13:00 -6°C° 0.1 mm 8 mps 745 mmHg 90%
    14:00 -6°C° 0.4 mm 7 mps 745 mmHg 91%
    15:00 -6°C° 0.4 mm 7 mps 745 mmHg 91%
    16:00 -5°C° 0.4 mm 6 mps 744 mmHg 92%
    17:00 -5°C° 0.1 mm 6 mps 745 mmHg 92%
    18:00 -5°C° 0.1 mm 6 mps 745 mmHg 92%
    19:00 -6°C° 0.1 mm 5 mps 745 mmHg 92%
    20:00 -6°C° 0.1 mm 5 mps 745 mmHg 92%
    21:00 -6°C° 0.1 mm 5 mps 746 mmHg 92%
    22:00 -7°C° 0.1 mm 5 mps 746 mmHg 92%
    23:00 -11°C° 0 mm 5 mps 747 mmHg 92%

    20 January, Sunday

    Time Temperature Precipitation Wind Pressure Humidity
    00:00 -14°C° 0 mm 4 mps 747 mmHg 92%
    01:00 -16°C° 0 mm 3 mps 748 mmHg 93%
    02:00 -17°C° 0 mm 3 mps 748 mmHg 94%
    03:00 -18°C° 0 mm 3 mps 748 mmHg 94%
    04:00 -19°C° 0 mm 3 mps 749 mmHg 95%
    05:00 -19°C° 0 mm 3 mps 749 mmHg 96%
    06:00 -20°C° 0 mm 4 mps 749 mmHg 96%
    07:00 -20°C° 0 mm 4 mps 749 mmHg 96%
    08:00 -18°C° 0 mm 4 mps 749 mmHg 95%
    09:00 -17°C° 0 mm 4 mps 749 mmHg 94%
    10:00 -17°C° 0 mm 5 mps 749 mmHg 93%
    11:00 -15°C° 0 mm 5 mps 750 mmHg 92%
    12:00 -14°C° 0 mm 6 mps 750 mmHg 91%
    13:00 -12°C° 0 mm 6 mps 750 mmHg 90%
    14:00 -12°C° 0.1 mm 6 mps 750 mmHg 89%
    15:00 -12°C° 0.1 mm 6 mps 750 mmHg 89%
    16:00 -12°C° 0.1 mm 6 mps 751 mmHg 89%
    17:00 -12°C° 0.1 mm 6 mps 751 mmHg 89%
    18:00 -12°C° 0.1 mm 6 mps 751 mmHg 90%
    19:00 -12°C° 0.1 mm 5 mps 752 mmHg 90%
    20:00 -12°C° 0.1 mm 5 mps 752 mmHg 90%
    21:00 -12°C° 0.1 mm 5 mps 752 mmHg 89%
    22:00 -12°C° 0.1 mm 5 mps 752 mmHg 89%
    23:00 -12°C° 0.1 mm 5 mps 753 mmHg 90%

    21 January, Monday

    Time Temperature Precipitation Wind Pressure Humidity
    00:00 -12°C° 0.1 mm 5 mps 753 mmHg 91%
    01:00 -13°C° 0.1 mm 5 mps 753 mmHg 92%
    02:00 -12°C° 0.1 mm 6 mps 754 mmHg 92%
    03:00 -12°C° 0.1 mm 6 mps 754 mmHg 91%
    04:00 -12°C° 0.1 mm 6 mps 754 mmHg 91%
    05:00 -14°C° 0.1 mm 6 mps 755 mmHg 91%
    06:00 -14°C° 0.1 mm 6 mps 755 mmHg 91%
    07:00 -14°C° 0.1 mm 6 mps 755 mmHg 92%
    08:00 -15°C° 0.1 mm 6 mps 756 mmHg 92%
    09:00 -16°C° 0.1 mm 6 mps 756 mmHg 92%
    10:00 -17°C° 0.1 mm 6 mps 757 mmHg 92%
    11:00 -15°C° 0.1 mm 5 mps 757 mmHg 92%
    12:00 -15°C° 0.1 mm 5 mps 757 mmHg 92%
    13:00 -15°C° 0.1 mm 5 mps 757 mmHg 92%
    14:00 -15°C° 0.1 mm 5 mps 758 mmHg 92%
    15:00 -15°C° 0.1 mm 5 mps 758 mmHg 92%
    16:00 -15°C° 0.1 mm 5 mps 758 mmHg 93%
    17:00 -15°C° 0.1 mm 5 mps 758 mmHg 93%
    18:00 -16°C° 0.1 mm 4 mps 758 mmHg 94%
    19:00 -16°C° 0.1 mm 4 mps 758 mmHg 94%
    20:00 -16°C° 0.1 mm 4 mps 758 mmHg 94%
    21:00 -15°C° 0.1 mm 4 mps 758 mmHg 94%
    22:00 -15°C° 0.1 mm 4 mps 757 mmHg 94%
    23:00 -15°C° 0.4 mm 5 mps 757 mmHg 94%
    Show more